Location: Caltech
(34.1382°N, 118.1253°W)
Time: 12:13:26
(UTC-08:00)

Cosmos 1980 Rocket - Visible Passes

Search period start: 28 January 2015 00:00
Search period end: 07 February 2015 00:00
Orbit: 831 x 849 km, 71.0° (Epoch: 27 January)

Date Brightness Start Highest point End Pass type
(mag) Time Alt. Az. Time Alt. Az. Time Alt. Az.
28 Jan 2.3 05:18:03 10° NNW 05:23:41 77° ENE 05:29:20 10° SSE visible
28 Jan 2.8 18:21:48 10° SSE 18:26:44 34° ESE 18:30:03 19° NE visible
28 Jan 3.9 20:06:02 10° WSW 20:10:48 27° WNW 20:11:55 25° NW visible
29 Jan 2.4 05:03:22 15° NNW 05:08:04 72° ENE 05:13:42 10° SSE visible
29 Jan 2.9 18:06:19 10° SSE 18:11:08 32° ESE 18:16:04 10° NE visible
29 Jan 3.9 19:50:17 10° WSW 19:55:09 29° WNW 19:57:55 19° NNW visible
30 Jan 2.4 04:49:03 24° N 04:52:27 67° ENE 04:58:04 10° SSE visible
30 Jan 3.0 17:50:51 10° SSE 17:55:33 29° ESE 18:00:22 10° NE visible
30 Jan 3.8 19:34:33 10° SW 19:39:30 31° WNW 19:43:50 13° N visible
31 Jan 2.5 04:34:53 39° N 04:36:50 63° ENE 04:42:25 10° SSE visible
31 Jan 3.8 06:17:24 10° WNW 06:20:22 14° W 06:23:00 10° SW visible
31 Jan 3.7 19:18:49 10° SW 19:23:52 33° WNW 19:28:52 10° N visible
01 Feb 2.6 04:20:48 57° NE 04:21:12 58° ENE 04:26:46 10° SE visible
01 Feb 3.7 06:02:39 13° WNW 06:04:47 15° W 06:07:45 10° SW visible
01 Feb 3.6 19:03:06 10° SW 19:08:13 36° WNW 19:13:18 10° N visible
02 Feb 3.1 04:06:50 45° ESE 04:06:50 45° ESE 04:11:07 10° SE visible
02 Feb 3.6 05:48:41 16° W 05:49:12 16° W 05:52:28 10° SW visible
02 Feb 3.5 18:47:23 10° SW 18:52:35 38° WNW 18:57:45 10° N visible
03 Feb 3.9 03:52:54 26° SE 03:52:54 26° SE 03:55:27 10° SE visible
03 Feb 3.7 05:34:46 17° WSW 05:34:46 17° WSW 05:37:08 10° SW visible
03 Feb 3.4 18:31:41 10° SW 18:36:57 41° WNW 18:42:11 10° N visible
04 Feb 4.6 03:39:00 14° SE 03:39:00 14° SE 03:39:46 10° SE visible
04 Feb 4.1 05:20:52 13° SW 05:20:52 13° SW 05:21:47 10° SW visible
04 Feb 3.3 18:16:00 10° SW 18:21:18 44° WNW 18:26:37 10° N visible
05 Feb 3.3 18:00:19 10° SW 18:05:41 47° WNW 18:11:03 10° N visible
06 Feb 3.2 17:44:38 10° SW 17:50:03 50° WNW 17:55:29 10° N visible
